Location: Kawakawa
(35.3830°S, 174.0670°E)
Time: 01:01:29
(UTC+13:00)

Explorer 7 - Pass Details

Date: 18 December 2019
Orbit: 485 x 679 km, 50.3° (Epoch: 24 January)

Event Time Altitude Azimuth Distance (km) Brightness Sun altitude
Rises 06:55:13 0° 220° (SW) 2,586 10.1 8.6°
Reaches altitude 10° 06:58:32 10° 190° (S) 1,695 9.5 9.2°
Maximum altitude 07:00:15 13° 163° (SSE) 1,537 9.8 9.5°
Drops below altitude 10° 07:01:59 10° 136° (SE) 1,697 10.8 9.9°
Sets 07:05:18 0° 105° (ESE) 2,594 12.4 10.5°
